Location: Stoke Bliss
(52.2667°N, 2.5167°W)
Time: 12:47:51
(UTC+00:00)

Envisat - Pass Details

Date: 04 December 2021
Orbit: 764 x 766 km, 98.2° (Epoch: 23 January)

Event Time Altitude Azimuth Distance (km) Brightness Sun altitude
Rises 05:29:27 0° 14° (NNE) 3,248 6.3 -22.1°
Reaches altitude 10° 05:31:46 10° 14° (NNE) 2,317 5.5 -21.7°
Maximum altitude 05:36:54 87° 286° (WNW) 775 2.9 -20.9°
Drops below altitude 10° 05:41:58 10° 198° (SSW) 2,299 5.4 -20.2°
Sets 05:44:16 0° 198° (SSW) 3,220 6.2 -19.8°
